Hinckley, MN

3:29 PM CST on December 06, 2019 (GMT -0600)
Hinckley

Weather History for K04W - October, 2019

Change the Weather History Date:

Sunday, October 13, 2019

  Actual Average (KJMR) Record (KJMR)
Temperature  
Mean Temperature 38 °F -  
Max Temperature 44 °F 58 °F 82 °F (1956)
Min Temperature 32 °F 32 °F 15 °F (1979)
Degree Days  
Heating Degree Days 27    
Moisture  
Dew Point 33 °F    
Average Humidity 88    
Maximum Humidity 100    
Minimum Humidity 61    
Precipitation  
Precipitation 0.00 in - - ()
Sea Level Pressure  
Sea Level Pressure 29.71 in    
Wind  
Wind Speed 9 mph (WSW)    
Max Wind Speed 15 mph    
Max Gust Speed 24 mph    
Visibility 10 miles    
Events Snow    
Averages and records for this station are not official NWS values.
T = Trace of Precipitation, MM = Missing Value Source: NWS Daily Summary

Daily Weather History Graph

Daily Weather History Graph

Search for Another Location

Airport or City:

Astronomy

Oct. 13, 2019 Rise Set
Actual Time 7:25 AM CDT 6:29 PM CDT
Civil Twilight 6:55 AM CDT 6:59 PM CDT
Nautical Twilight 6:20 AM CDT 7:33 PM CDT
Astronomical Twilight 5:46 AM CDT 8:08 PM CDT
Moon 6:55 PM CDT (10/13) 6:55 AM CDT (10/13)
Length of Visible Light 12h 03m
Length of Day
11h 03m
Full, 100% of the Moon is Illuminated
Oct 13
Full
Oct 13
Full
Oct 21
Last Quarter
Oct 27
New
Nov 4
First Quarter

Hourly Weather History & Observations

Time (CDT) Temp. Windchill Dew Point Humidity Pressure Visibility Wind Dir Wind Speed Gust Speed Precip Events Conditions
12:19 AM 33.8 °F 27.0 °F 32.0 °F 93% 29.56 in 10.0 mi SW 8.1 mph - N/A   Overcast
12:36 AM 33.8 °F 26.4 °F 32.0 °F 93% 29.56 in 10.0 mi SW 9.2 mph - N/A   Overcast
12:55 AM 33.8 °F 27.0 °F 32.0 °F 93% 29.56 in 10.0 mi SW 8.1 mph - N/A   Overcast
1:15 AM 32.0 °F 23.0 °F 32.0 °F 100% 29.57 in 10.0 mi WSW 11.5 mph 17.3 mph N/A   Overcast
1:16 AM 32.0 °F 23.6 °F 32.0 °F 100% 29.57 in 10.0 mi SW 10.4 mph 17.3 mph N/A   Overcast
1:35 AM 32.0 °F 23.6 °F 32.0 °F 100% 29.58 in 10.0 mi WSW 10.4 mph - N/A   Overcast
1:58 AM 32.0 °F 22.5 °F 32.0 °F 100% 29.58 in 10.0 mi WSW 12.7 mph 17.3 mph N/A   Overcast
2:15 AM 32.0 °F 23.6 °F 32.0 °F 100% 29.59 in 10.0 mi WSW 10.4 mph - N/A   Overcast
2:35 AM 32.0 °F 23.0 °F 32.0 °F 100% 29.59 in 10.0 mi WSW 11.5 mph - N/A   Overcast
2:36 AM 32.0 °F 23.6 °F 32.0 °F 100% 29.59 in 10.0 mi WSW 10.4 mph - N/A   Overcast
2:55 AM 32.0 °F 22.5 °F 32.0 °F 100% 29.59 in 10.0 mi WSW 12.7 mph 16.1 mph N/A   Overcast
2:56 AM 32.0 °F 22.5 °F 32.0 °F 100% 29.59 in 10.0 mi WSW 12.7 mph 16.1 mph N/A   Overcast
3:18 AM 32.0 °F 24.2 °F 32.0 °F 100% 29.59 in 10.0 mi WSW 9.2 mph - N/A   Overcast
3:36 AM 32.0 °F 24.8 °F 32.0 °F 100% 29.59 in 10.0 mi WSW 8.1 mph - N/A   Mostly Cloudy
3:56 AM 32.0 °F 25.6 °F 32.0 °F 100% 29.59 in 10.0 mi WSW 6.9 mph - N/A   Mostly Cloudy
4:15 AM 32.0 °F 25.6 °F 32.0 °F 100% 29.59 in 10.0 mi WSW 6.9 mph - N/A   Overcast
4:16 AM 32.0 °F 25.6 °F 32.0 °F 100% 29.60 in 10.0 mi WSW 6.9 mph - N/A   Overcast
4:35 AM 32.0 °F 24.8 °F 32.0 °F 100% 29.60 in 10.0 mi WSW 8.1 mph - N/A   Overcast
4:39 AM 32.0 °F 24.2 °F 32.0 °F 100% 29.60 in 10.0 mi WSW 9.2 mph - N/A   Overcast
4:57 AM 32.0 °F 25.6 °F 32.0 °F 100% 29.60 in 10.0 mi WSW 6.9 mph - N/A   Overcast
5:15 AM 32.0 °F 24.2 °F 32.0 °F 100% 29.61 in 10.0 mi WSW 9.2 mph - N/A   Overcast
5:35 AM 32.0 °F 24.8 °F 32.0 °F 100% 29.61 in 10.0 mi WSW 8.1 mph - N/A   Overcast
5:36 AM 32.0 °F 24.2 °F 32.0 °F 100% 29.61 in 10.0 mi WSW 9.2 mph - N/A   Overcast
5:55 AM 32.0 °F 24.2 °F 32.0 °F 100% 29.62 in 10.0 mi WSW 9.2 mph - N/A   Overcast
6:19 AM 32.0 °F 23.6 °F 32.0 °F 100% 29.62 in 10.0 mi WSW 10.4 mph - N/A   Overcast
6:36 AM 32.0 °F 24.2 °F 32.0 °F 100% 29.62 in 10.0 mi WSW 9.2 mph - N/A   Overcast
6:56 AM 33.8 °F 27.0 °F 32.0 °F 93% 29.62 in 10.0 mi WSW 8.1 mph - N/A   Overcast
7:15 AM 33.8 °F 27.0 °F 32.0 °F 93% 29.63 in 10.0 mi WSW 8.1 mph - N/A   Overcast
7:16 AM 33.8 °F 27.0 °F 32.0 °F 93% 29.63 in 10.0 mi WSW 8.1 mph - N/A   Overcast
7:35 AM 33.8 °F 27.0 °F 32.0 °F 93% 29.63 in 10.0 mi WSW 8.1 mph - N/A   Overcast
7:40 AM 33.8 °F 27.0 °F 32.0 °F 93% 29.64 in 10.0 mi WSW 8.1 mph - N/A   Overcast
7:57 AM 33.8 °F 26.4 °F 32.0 °F 93% 29.64 in 10.0 mi WSW 9.2 mph - N/A   Overcast
8:16 AM 33.8 °F 26.4 °F 32.0 °F 93% 29.64 in 10.0 mi WSW 9.2 mph - N/A   Overcast
8:35 AM 33.8 °F 27.7 °F 32.0 °F 93% 29.65 in 5.0 mi WSW 6.9 mph - N/A Snow Light Snow
8:36 AM 33.8 °F 26.4 °F 32.0 °F 93% 29.65 in 5.0 mi WSW 9.2 mph - N/A Snow Light Snow
8:55 AM 33.8 °F 27.0 °F 32.0 °F 93% 29.65 in 10.0 mi WSW 8.1 mph 17.3 mph N/A   Overcast
9:18 AM 33.8 °F 25.3 °F 32.0 °F 93% 29.66 in 10.0 mi West 11.5 mph - N/A   Overcast
9:36 AM 33.8 °F 25.8 °F 32.0 °F 93% 29.66 in 4.0 mi West 10.4 mph - N/A Snow Light Snow
9:56 AM 33.8 °F 27.7 °F 33.8 °F 100% 29.66 in 10.0 mi WSW 6.9 mph - N/A   Overcast
10:15 AM 35.6 °F 29.2 °F 33.8 °F 93% 29.67 in 10.0 mi West 8.1 mph - N/A   Overcast
10:16 AM 35.6 °F 28.6 °F 33.8 °F 93% 29.68 in 10.0 mi West 9.2 mph - N/A   Overcast
10:35 AM 35.6 °F 28.6 °F 33.8 °F 93% 29.68 in 10.0 mi West 9.2 mph - N/A   Overcast
10:40 AM 35.6 °F 29.2 °F 33.8 °F 93% 29.68 in 10.0 mi WSW 8.1 mph - N/A   Overcast
10:57 AM 37.4 °F 30.3 °F 33.8 °F 87% 29.68 in 10.0 mi West 10.4 mph - N/A   Overcast
11:16 AM 37.4 °F 29.8 °F 33.8 °F 87% 29.69 in 10.0 mi West 11.5 mph 16.1 mph N/A   Overcast
11:35 AM 39.2 °F 33.0 °F 35.6 °F 87% 29.68 in 10.0 mi West 9.2 mph - N/A   Overcast
11:36 AM 39.2 °F 33.6 °F 35.6 °F 87% 29.68 in 10.0 mi West 8.1 mph - N/A   Overcast
11:55 AM 39.2 °F 31.2 °F 33.8 °F 81% 29.69 in 10.0 mi West 13.8 mph 18.4 mph N/A   Overcast
11:56 AM 41.0 °F 34.7 °F 33.8 °F 76% 29.69 in 10.0 mi West 10.4 mph 18.4 mph N/A   Overcast
12:18 PM 41.0 °F 34.7 °F 33.8 °F 76% 29.69 in 10.0 mi West 10.4 mph - N/A   Overcast
12:36 PM 39.2 °F 32.5 °F 33.8 °F 81% 29.71 in 10.0 mi West 10.4 mph - N/A   Overcast
12:56 PM 39.2 °F 30.8 °F 35.6 °F 87% 29.71 in 10.0 mi West 15.0 mph 18.4 mph N/A   Overcast
1:15 PM 41.0 °F 36.4 °F 33.8 °F 76% 29.71 in 10.0 mi West 6.9 mph 16.1 mph N/A   Overcast
1:16 PM 41.0 °F 35.8 °F 33.8 °F 76% 29.71 in 10.0 mi West 8.1 mph 16.1 mph N/A   Overcast
1:35 PM 39.2 °F 31.6 °F 33.8 °F 81% 29.71 in 7.0 mi West 12.7 mph 19.6 mph N/A   Overcast
1:40 PM 39.2 °F 33.6 °F 33.8 °F 81% 29.72 in 7.0 mi West 8.1 mph - N/A   Overcast
1:57 PM 42.8 °F 37.5 °F 33.8 °F 70% 29.71 in 10.0 mi West 9.2 mph - N/A   Mostly Cloudy
2:16 PM 41.0 °F 34.7 °F 33.8 °F 76% 29.72 in 7.0 mi West 10.4 mph 18.4 mph N/A   Scattered Clouds
2:35 PM 42.8 °F 37.0 °F 35.6 °F 76% 29.72 in 10.0 mi West 10.4 mph 19.6 mph N/A   Scattered Clouds
2:36 PM 42.8 °F 35.8 °F 35.6 °F 76% 29.72 in 10.0 mi West 13.8 mph 19.6 mph N/A   Scattered Clouds
2:55 PM 42.8 °F 35.8 °F 33.8 °F 70% 29.73 in 10.0 mi West 13.8 mph 19.6 mph N/A   Scattered Clouds
2:56 PM 42.8 °F 36.2 °F 33.8 °F 70% 29.73 in 10.0 mi West 12.7 mph 19.6 mph N/A   Scattered Clouds
3:19 PM 44.6 °F 39.7 °F 33.8 °F 66% 29.73 in 10.0 mi West 9.2 mph 17.3 mph N/A   Mostly Cloudy
3:36 PM 44.6 °F 37.8 °F 32.0 °F 61% 29.73 in 10.0 mi West 15.0 mph 21.9 mph N/A   Mostly Cloudy
3:55 PM 42.8 °F 36.2 °F 32.0 °F 66% 29.74 in 10.0 mi West 12.7 mph 21.9 mph N/A   Mostly Cloudy
4:15 PM 44.6 °F 39.2 °F 32.0 °F 61% 29.75 in 10.0 mi West 10.4 mph 17.3 mph N/A   Mostly Cloudy
4:16 PM 44.6 °F 38.4 °F 32.0 °F 61% 29.75 in 10.0 mi West 12.7 mph 17.3 mph N/A   Mostly Cloudy
4:35 PM 41.0 °F 34.3 °F 33.8 °F 76% 29.76 in 10.0 mi West 11.5 mph 24.2 mph N/A   Light Drizzle
4:36 PM 41.0 °F 34.7 °F 33.8 °F 76% 29.76 in 10.0 mi West 10.4 mph 24.2 mph N/A   Mostly Cloudy
4:58 PM 42.8 °F 37.0 °F 33.8 °F 70% 29.76 in 10.0 mi West 10.4 mph - N/A   Scattered Clouds
5:16 PM 42.8 °F 36.2 °F 32.0 °F 66% 29.77 in 10.0 mi West 12.7 mph 20.7 mph N/A   Clear
5:36 PM 42.8 °F 36.2 °F 32.0 °F 66% 29.78 in 10.0 mi West 12.7 mph 18.4 mph N/A   Scattered Clouds
5:55 PM 42.8 °F 37.5 °F 32.0 °F 66% 29.79 in 10.0 mi NNW 9.2 mph 16.1 mph N/A   Mostly Cloudy
5:56 PM 42.8 °F 38.0 °F 33.8 °F 70% 29.79 in 10.0 mi NNW 8.1 mph 16.1 mph N/A   Mostly Cloudy
6:15 PM 37.4 °F 32.8 °F 35.6 °F 93% 29.80 in 7.0 mi NW 5.8 mph - N/A   Drizzle
6:37 PM 37.4 °F 34.9 °F 33.8 °F 87% 29.80 in 10.0 mi West 3.5 mph - N/A   Scattered Clouds
6:56 PM 37.4 °F - 33.8 °F 87% 29.81 in 10.0 mi Calm Calm - N/A   Scattered Clouds
7:15 PM 37.4 °F 33.8 °F 33.8 °F 87% 29.82 in 10.0 mi WNW 4.6 mph - N/A   Mostly Cloudy
7:16 PM 37.4 °F 33.8 °F 33.8 °F 87% 29.82 in 10.0 mi WNW 4.6 mph - N/A   Mostly Cloudy
7:35 PM 37.4 °F 32.1 °F 33.8 °F 87% 29.83 in 10.0 mi West 6.9 mph - N/A   Mostly Cloudy
7:39 PM 37.4 °F 34.9 °F 33.8 °F 87% 29.83 in 10.0 mi West 3.5 mph - N/A   Mostly Cloudy
7:57 PM 37.4 °F 34.9 °F 33.8 °F 87% 29.84 in 10.0 mi WNW 3.5 mph - N/A   Mostly Cloudy
8:16 PM 37.4 °F 32.8 °F 33.8 °F 87% 29.84 in 10.0 mi West 5.8 mph - N/A   Mostly Cloudy
8:35 PM 37.4 °F 33.8 °F 33.8 °F 87% 29.85 in 10.0 mi West 4.6 mph - N/A   Mostly Cloudy
8:36 PM 37.4 °F 33.8 °F 33.8 °F 87% 29.85 in 10.0 mi West 4.6 mph - N/A   Mostly Cloudy
8:55 PM 35.6 °F 32.8 °F 33.8 °F 93% 29.85 in 10.0 mi West 3.5 mph - N/A   Scattered Clouds
9:18 PM 33.8 °F 29.6 °F 32.0 °F 93% 29.86 in 10.0 mi WSW 4.6 mph - N/A   Clear
9:36 PM 33.8 °F 29.6 °F 32.0 °F 93% 29.87 in 10.0 mi WSW 4.6 mph - N/A   Scattered Clouds
9:56 PM 33.8 °F 28.6 °F 33.8 °F 100% 29.88 in 10.0 mi WSW 5.8 mph - N/A   Overcast
10:15 PM 35.6 °F 31.7 °F 32.0 °F 87% 29.88 in 10.0 mi West 4.6 mph - N/A   Overcast
10:16 PM 35.6 °F 31.7 °F 32.0 °F 87% 29.88 in 10.0 mi WSW 4.6 mph - N/A   Overcast
10:35 PM 33.8 °F 28.6 °F 32.0 °F 93% 29.88 in 10.0 mi WSW 5.8 mph - N/A   Overcast
10:40 PM 33.8 °F 28.6 °F 32.0 °F 93% 29.88 in 10.0 mi WSW 5.8 mph - N/A   Overcast
10:58 PM 35.6 °F 29.9 °F 32.0 °F 87% 29.88 in 10.0 mi WSW 6.9 mph - N/A   Overcast
11:16 PM 33.8 °F 28.6 °F 32.0 °F 93% 29.89 in 10.0 mi West 5.8 mph - N/A   Mostly Cloudy
11:35 PM 32.0 °F 25.6 °F 32.0 °F 100% 29.89 in 10.0 mi West 6.9 mph - N/A   Clear
11:36 PM 32.0 °F 25.6 °F 32.0 °F 100% 29.89 in 10.0 mi West 6.9 mph - N/A   Clear
11:55 PM 32.0 °F 25.6 °F 32.0 °F 100% 29.89 in 10.0 mi West 6.9 mph - N/A   Clear